Wind_Speed
6 6 6 6 6 6 6 6 6 5 5 5 5 5 5 5 5 5 6 6 6 6 6 6 6 7 7 8 8 8 8 8 9 8 8 8 9 9 10 10 10 9 9
6 6 6 6 6 6 6 6 6 6 6 5 5 5 6 6 6 6 7 7 7 7 6 6 7 7 7 8 8 9 8 9 9 8 9 9 9 10 10 10 10 10 10
7 7 7 7 7 6 6 6 6 6 6 6 6 5 6 7 7 7 7 7 8 8 8 7 7 7 7 8 8 9 9 9 9 9 9 9 9 10 11 11 10 10 10
8 8 8 8 8 7 6 6 6 6 6 7 7 7 7 8 8 8 8 8 9 9 8 8 8 8 8 8 8 9 9 10 10 10 10 10 11 11 11 11 10 10 10
9 9 9 9 8 8 7 7 7 7 7 8 8 8 9 9 9 9 10 9 9 10 9 9 9 9 9 8 9 9 9 10 10 10 10 11 11 11 11 10 10 10 11
9 9 10 9 9 9 8 8 8 8 8 9 9 9 10 10 10 10 11 10 10 10 10 10 10 10 10 10 9 9 10 10 10 10 11 11 11 11 11 11 10 11 11
11 11 10 10 9 9 10 9 9 9 9 9 9 10 11 11 11 12 11 11 11 11 11 11 11 11 11 10 10 10 10 10 11 11 12 12 12 11 11 10 11 11 10
13 12 11 10 10 11 11 11 10 10 10 10 10 11 12 12 11 12 12 12 12 11 11 11 11 11 11 11 10 11 11 11 11 12 12 12 11 11 11 10 10 10 10
13 12 11 11 11 11 11 12 11 11 11 11 12 12 12 11 12 12 12 12 12 12 11 11 12 12 12 12 11 11 11 11 12 12 12 12 11 10 10 11 11 11 11
12 12 12 12 12 12 12 12 12 12 12 12 12 13 13 12 12 12 12 12 13 13 12 12 12 12 12 12 13 12 12 12 12 12 12 12 11 10 10 10 11 11 11
12 12 13 12 13 13 12 12 13 13 13 14 14 14 14 13 14 14 13 13 13 13 13 13 13 13 13 12 13 12 13 13 12 12 12 11 10 10 10 11 10 10 10
14 14 13 13 13 14 13 13 14 14 13 14 14 14 14 14 14 14 14 13 13 14 14 13 13 13 13 14 13 13 13 13 13 13 12 11 11 11 11 10 10 10 10
15 15 15 14 14 14 14 14 15 15 15 15 14 15 15 15 15 15 14 14 14 15 15 14 14 13 14 14 14 13 14 13 13 12 13 12 11 11 11 10 10 10 10
16 16 16 15 15 15 16 16 16 16 16 16 16 16 16 16 16 16 15 15 15 15 15 15 15 14 14 14 14 14 14 13 12 12 12 11 11 11 11 11 10 10 11
18 17 18 18 17 17 17 17 17 17 17 17 17 17 17 17 17 17 17 16 16 15 15 15 16 15 15 15 14 14 13 13 12 12 11 11 11 11 11 11 11 11 11
18 19 19 19 18 18 18 18 18 18 18 18 18 18 18 18 18 18 17 17 17 17 16 17 17 17 16 15 14 14 13 13 13 13 13 12 12 12 12 12 12 13 12
20 21 21 21 20 19 19 19 19 19 20 20 20 19 20 20 20 19 18 18 18 18 18 18 18 17 17 17 16 15 15 14 14 14 14 13 13 13 13 13 13 13 13
22 22 23 22 21 21 20 20 20 20 20 21 21 21 20 20 20 19 19 19 19 19 19 19 19 18 18 18 17 17 16 17 16 15 15 14 14 13 13 14 14 13 13
23 24 24 23 22 22 22 22 21 21 21 22 22 22 21 21 21 20 20 20 20 20 20 20 20 20 19 19 18 18 18 17 16 15 15 15 14 14 14 14 13 13 13
25 25 25 24 24 23 23 23 23 23 23 23 23 23 22 22 21 21 21 21 21 21 21 21 21 21 20 20 19 18 18 17 16 16 16 16 15 15 15 14 13 13 13
27 27 26 26 26 26 25 25 25 25 25 25 24 24 23 23 22 22 22 22 22 22 22 21 20 20 20 19 19 18 17 17 17 17 17 17 16 16 16 15 14 14 14
29 29 28 28 28 28 27 27 27 27 26 25 25 25 25 24 24 24 24 23 24 23 23 22 21 21 20 19 19 19 18 18 18 18 18 18 17 17 16 16 16 15 15
31 31 30 30 29 29 29 29 29 28 28 28 27 26 26 26 26 25 25 25 25 24 23 23 22 21 21 20 19 20 20 19 19 19 18 18 19 18 18 18 18 17 17
32 31 31 30 31 30 30 30 30 30 29 28 27 28 27 27 27 27 26 26 26 25 24 23 23 22 22 21 21 22 22 21 21 20 20 19 19 19 19 20 19 18 17
31 31 31 31 30 30 30 30 30 30 30 29 29 29 29 29 28 27 28 27 25 25 24 24 24 24 23 23 23 23 23 23 22 21 21 21 20 20 20 20 19 19 19
31 31 30 30 30 30 29 30 30 30 30 30 29 30 29 29 28 28 27 26 25 24 25 25 25 25 24 24 24 24 24 24 23 23 22 22 21 21 20 20 21 20 20
Wind_Direction
299 297 295 297 299 303 304 300 300 297 294 293 294 292 291 291 300 306 307 310 312 310 307 312 311 308 303 303 302 301 297 299 296 296 290 290 285 287 290 286 284 283 283
299 302 296 291 291 294 292 295 301 303 300 302 303 296 292 292 291 295 298 299 301 302 305 306 304 303 299 300 301 301 301 302 297 292 291 291 288 287 289 289 285 281 281
298 297 297 293 288 289 289 291 297 299 300 300 297 295 294 294 293 294 298 295 296 299 300 302 301 300 300 299 301 303 301 302 301 296 289 289 290 292 292 290 286 280 279
292 291 290 291 291 289 285 290 294 298 297 297 293 293 292 292 290 291 296 297 293 293 294 297 300 297 296 298 300 302 301 298 297 298 291 288 291 294 298 294 289 286 283
290 286 285 287 287 283 285 290 292 292 294 294 293 294 295 293 289 289 289 293 291 288 287 289 291 292 293 296 299 302 300 301 297 294 295 295 294 294 295 293 289 292 288
288 284 285 284 283 281 281 283 289 291 293 294 295 295 295 295 291 290 288 289 292 292 285 284 287 289 292 294 295 298 299 300 296 293 294 297 296 293 290 287 287 287 288
286 282 284 283 282 280 278 280 285 289 293 294 297 296 296 298 292 291 288 287 290 291 288 283 286 288 289 291 293 293 294 294 293 294 295 296 297 292 288 285 285 285 287
295 291 284 281 280 283 279 280 285 285 286 290 292 295 294 295 292 288 286 285 287 287 286 286 285 285 288 289 291 293 292 293 294 295 298 297 296 294 287 284 284 286 286
294 291 289 283 281 283 281 282 284 284 285 287 289 293 292 293 294 291 286 285 286 284 282 284 286 286 288 286 288 293 294 294 295 296 299 296 297 292 289 291 287 287 287
294 289 291 287 289 285 283 281 282 282 284 286 289 291 292 294 295 294 286 284 284 281 278 281 285 285 287 289 288 286 288 290 292 296 297 294 294 292 292 293 292 291 289
290 288 291 289 290 289 284 279 280 282 282 285 287 290 290 291 293 293 288 284 283 280 277 278 281 282 283 285 283 286 285 287 288 291 293 293 291 290 291 292 291 292 293
284 284 289 290 289 289 288 284 281 283 284 286 286 288 288 287 289 291 289 288 285 281 279 281 280 280 282 281 280 281 283 289 289 286 288 288 286 289 291 292 291 292 294
282 282 285 289 290 291 293 296 289 285 287 287 286 286 287 286 286 288 288 287 285 281 277 278 279 280 282 280 276 277 279 285 287 285 283 284 284 287 290 290 291 291 293
281 282 282 285 288 290 291 294 293 288 287 285 284 283 284 284 283 284 286 288 286 283 279 277 277 279 280 281 279 277 278 279 284 286 285 285 285 285 288 288 288 290 290
281 284 286 283 283 285 287 288 289 288 285 286 287 284 283 283 282 281 282 285 287 285 281 277 277 277 277 278 278 277 278 279 280 285 286 287 287 287 288 287 289 290 290
283 286 286 283 282 283 284 286 286 286 284 284 284 285 284 281 279 278 278 279 280 281 282 280 277 277 275 276 275 274 276 275 275 277 280 283 285 285 287 288 287 287 290
283 285 286 285 284 282 283 284 284 285 283 283 283 284 284 282 281 278 275 276 277 278 277 278 279 277 274 274 274 272 272 274 273 273 277 279 280 282 285 288 290 287 288
282 284 286 285 284 282 281 282 284 284 283 283 284 284 284 284 282 278 275 275 276 277 277 276 277 277 276 274 272 272 272 273 273 272 273 276 278 279 283 286 287 291 292
282 284 284 284 284 282 280 281 283 283 283 283 283 283 283 283 283 279 276 275 275 277 276 275 274 275 274 273 270 271 272 270 271 271 272 273 278 279 281 286 288 291 292
281 282 281 281 280 280 280 280 281 281 282 282 282 281 280 280 280 278 277 277 277 277 276 275 274 274 274 272 270 270 270 268 269 269 271 273 277 279 279 283 288 290 290
280 281 280 279 278 278 278 279 279 279 280 280 280 280 277 277 278 277 277 277 278 278 276 274 273 274 273 271 272 272 269 268 268 266 269 271 274 277 277 278 281 286 288
279 279 279 279 278 276 275 276 277 278 278 278 279 278 278 276 277 277 277 277 276 276 274 272 271 271 272 271 271 270 268 267 268 267 266 267 271 273 274 274 276 280 283
279 280 280 279 279 277 275 274 275 276 277 277 276 278 278 275 276 277 276 277 277 275 272 270 270 270 269 269 270 270 270 269 268 267 267 268 269 270 273 274 273 275 277
278 279 278 279 278 276 274 273 272 273 275 275 275 276 276 275 276 276 275 275 275 274 271 270 270 269 269 267 267 268 268 269 271 270 270 269 268 269 270 271 273 274 276
279 279 279 279 277 277 275 273 272 271 271 272 274 274 274 275 275 276 276 274 273 274 273 270 268 268 269 268 267 266 266 266 267 266 267 268 269 270 271 272 272 274 275
281 280 279 278 276 276 275 273 272 271 270 271 272 272 271 273 273 273 274 272 272 272 272 272 271 269 268 268 268 266 266 266 265 266 267 267 266 267 270 272 273 274 276
Height
5879 5878 5878 5878 5878 5878 5877 5877 5877 5877 5877 5876 5876 5876 5876 5876 5877 5877 5877 5877 5877 5877 5876 5876 5875 5875 5875 5875 5875 5875 5874 5874 5874 5874 5874 5874 5874 5874 5873 5873 5873 5872 5872
5877 5877 5877 5877 5877 5877 5876 5876 5876 5876 5876 5876 5876 5876 5876 5876 5876 5876 5876 5876 5876 5876 5875 5875 5874 5874 5874 5874 5873 5873 5873 5873 5873 5873 5873 5872 5872 5872 5871 5871 5870 5870 5870
5876 5876 5876 5876 5876 5876 5875 5875 5875 5875 5875 5875 5875 5875 5875 5875 5875 5875 5874 5874 5874 5874 5874 5874 5873 5873 5873 5872 5872 5872 5872 5872 5871 5871 5871 5870 5870 5870 5869 5869 5868 5868 5867
5875 5875 5874 5874 5875 5875 5874 5874 5874 5874 5874 5874 5874 5873 5873 5873 5873 5873 5873 5873 5872 5872 5873 5872 5872 5872 5871 5871 5871 5871 5870 5870 5870 5869 5869 5869 5868 5868 5867 5866 5866 5866 5865
5873 5873 5873 5872 5873 5873 5873 5873 5873 5872 5872 5872 5872 5872 5872 5871 5871 5871 5871 5871 5871 5871 5871 5870 5870 5870 5870 5870 5869 5869 5869 5868 5868 5867 5867 5866 5866 5865 5865 5864 5864 5863 5863
5871 5871 5871 5871 5871 5871 5871 5871 5871 5871 5871 5870 5870 5870 5870 5870 5869 5869 5869 5869 5869 5868 5868 5868 5868 5868 5868 5868 5867 5867 5867 5866 5866 5865 5865 5864 5864 5863 5862 5862 5861 5861 5860
5869 5869 5869 5869 5869 5869 5869 5869 5869 5869 5869 5868 5868 5868 5868 5867 5867 5867 5866 5866 5866 5866 5866 5866 5866 5866 5865 5865 5865 5865 5864 5864 5863 5863 5862 5862 5861 5860 5860 5859 5859 5858 5858
5867 5866 5866 5867 5867 5867 5867 5867 5867 5867 5866 5866 5866 5866 5866 5866 5865 5864 5864 5864 5864 5863 5863 5863 5863 5863 5863 5863 5863 5862 5862 5861 5861 5860 5860 5859 5858 5857 5857 5857 5856 5856 5855
5865 5864 5864 5864 5864 5864 5864 5864 5864 5864 5864 5864 5864 5863 5863 5863 5862 5862 5861 5861 5861 5860 5861 5860 5860 5860 5861 5860 5860 5859 5859 5858 5858 5858 5857 5856 5856 5855 5855 5854 5854 5853 5853
5862 5862 5862 5861 5861 5862 5861 5861 5861 5861 5861 5861 5861 5860 5860 5859 5859 5859 5858 5858 5858 5858 5858 5858 5858 5857 5858 5858 5857 5857 5856 5856 5855 5855 5854 5854 5853 5853 5852 5852 5851 5851 5850
5860 5860 5859 5859 5859 5858 5858 5858 5858 5858 5858 5858 5857 5857 5857 5856 5856 5855 5855 5855 5855 5854 5854 5854 5854 5854 5855 5854 5854 5854 5853 5853 5853 5852 5851 5851 5850 5850 5850 5849 5848 5848 5847
5858 5857 5857 5856 5856 5856 5855 5855 5855 5855 5854 5854 5854 5854 5853 5853 5852 5852 5851 5851 5851 5851 5851 5851 5851 5851 5851 5851 5851 5851 5850 5850 5849 5849 5849 5848 5848 5847 5847 5846 5845 5845 5844
5854 5854 5854 5853 5853 5853 5852 5852 5851 5851 5851 5851 5850 5850 5850 5849 5849 5848 5848 5848 5848 5848 5848 5848 5848 5848 5848 5848 5847 5847 5847 5847 5846 5846 5845 5845 5845 5844 5844 5843 5843 5842 5842
5851 5850 5850 5850 5850 5849 5849 5849 5848 5848 5847 5847 5847 5846 5846 5845 5845 5845 5845 5845 5844 5844 5844 5845 5844 5845 5845 5844 5844 5844 5844 5844 5843 5843 5842 5842 5842 5842 5841 5841 5840 5840 5839
5846 5846 5846 5846 5846 5845 5845 5845 5844 5844 5844 5843 5843 5843 5842 5842 5841 5841 5841 5841 5841 5841 5841 5841 5841 5841 5841 5841 5840 5840 5840 5840 5840 5840 5840 5840 5839 5839 5838 5838 5837 5837 5836
5842 5842 5842 5841 5841 5841 5841 5840 5840 5839 5839 5839 5839 5838 5838 5838 5837 5836 5836 5836 5837 5837 5837 5837 5837 5837 5837 5837 5837 5837 5837 5837 5837 5837 5837 5837 5836 5836 5835 5835 5834 5833 5832
5838 5837 5837 5836 5836 5836 5836 5835 5835 5835 5834 5834 5834 5834 5833 5833 5832 5832 5832 5832 5832 5832 5833 5833 5833 5833 5833 5833 5833 5832 5833 5833 5833 5833 5833 5833 5833 5833 5832 5832 5831 5830 5828
5833 5832 5832 5831 5831 5831 5830 5830 5830 5830 5830 5829 5829 5828 5828 5828 5827 5827 5827 5827 5827 5827 5828 5828 5827 5827 5828 5828 5828 5828 5829 5829 5829 5829 5829 5829 5829 5829 5829 5828 5827 5826 5824
5827 5827 5826 5826 5825 5825 5825 5825 5824 5824 5824 5824 5823 5823 5823 5822 5822 5822 5822 5822 5822 5822 5823 5823 5823 5823 5823 5823 5823 5824 5824 5824 5825 5825 5825 5826 5826 5825 5825 5825 5824 5822 5820
5821 5821 5820 5819 5819 5819 5819 5819 5819 5819 5818 5818 5817 5817 5817 5817 5817 5817 5816 5816 5816 5817 5817 5817 5817 5817 5817 5818 5818 5818 5819 5819 5820 5821 5821 5821 5821 5821 5821 5821 5820 5819 5817
5814 5814 5813 5813 5812 5812 5812 5812 5812 5812 5812 5811 5811 5811 5810 5811 5811 5811 5811 5811 5811 5811 5811 5811 5812 5812 5812 5812 5813 5813 5814 5815 5815 5816 5816 5817 5817 5817 5817 5817 5816 5815 5814
5807 5806 5805 5805 5805 5804 5805 5805 5805 5805 5804 5804 5804 5804 5804 5805 5805 5805 5805 5805 5805 5805 5805 5805 5806 5806 5806 5807 5807 5808 5808 5809 5810 5811 5811 5811 5812 5812 5812 5812 5811 5810 5810
5799 5798 5797 5797 5796 5796 5797 5797 5797 5797 5797 5797 5797 5797 5798 5798 5798 5798 5798 5798 5798 5798 5799 5799 5799 5800 5800 5801 5801 5802 5803 5803 5804 5805 5805 5806 5806 5807 5807 5807 5806 5806 5805
5791 5790 5789 5789 5788 5788 5788 5789 5789 5789 5789 5789 5789 5790 5790 5791 5791 5791 5791 5791 5791 5791 5792 5792 5793 5793 5794 5795 5795 5796 5797 5798 5798 5799 5799 5800 5800 5801 5801 5801 5801 5800 5800
5782 5781 5781 5780 5780 5780 5779 5780 5780 5781 5781 5782 5782 5782 5782 5783 5783 5783 5783 5784 5784 5784 5784 5785 5786 5786 5787 5788 5788 5789 5790 5791 5792 5792 5792 5793 5794 5794 5794 5795 5795 5794 5794
5773 5772 5772 5771 5771 5771 5771 5771 5771 5772 5773 5773 5773 5774 5774 5774 5775 5775 5775 5776 5777 5777 5777 5778 5779 5779 5780 5781 5781 5782 5783 5784 5784 5786 5786 5787 5787 5787 5788 5788 5788 5788 5787